| time (UTC) | temp F | wind direction | speed knots | gust knots | rain 1hr in | rain 24hr in | rain mn in | humidity % | barometer mb |
| 20260505220851 | 52 | 61 | 1.7 | 7.8 | 0.00 | 0.05 | 0.00 | 76 | 1009.0 |
| 20260505213853 | 53 | 0 | 1.7 | 7.0 | 0.00 | 0.06 | 0.05 | 76 | 1009.1 |
| 20260505200849 | 53 | 74 | 3.5 | 8.7 | 0.00 | 0.06 | 0.05 | 75 | 1009.1 |
| 20260505190850 | 55 | 70 | 1.7 | 6.1 | 0.00 | 0.06 | 0.05 | 75 | 1008.5 |
| 20260505180849 | 56 | 40 | 1.7 | 7.0 | 0.00 | 0.06 | 0.05 | 77 | 1008.2 |
| 20260505170851 | 57 | 75 | 0.9 | 7.8 | 0.00 | 0.06 | 0.05 | 77 | 1008.5 |
| 20260505160849 | 56 | 48 | 3.5 | 7.8 | 0.00 | 0.06 | 0.05 | 78 | 1009.0 |
| 20260505150849 | 55 | 344 | 2.6 | 7.0 | 0.00 | 0.06 | 0.05 | 81 | 1009.2 |
| 20260505120847 | 53 | 50 | 2.6 | 8.7 | 0.00 | 0.06 | 0.05 | 85 | 1010.1 |
| 20260505110847 | 53 | 340 | 2.6 | 7.0 | 0.00 | 0.07 | 0.05 | 87 | 1010.5 |
| 20260505100846 | 51 | 55 | 2.6 | 7.8 | 0.00 | 0.07 | 0.05 | 91 | 1010.7 |
| 20260505093845 | 50 | 37 | 2.6 | 7.8 | 0.00 | 0.24 | 0.05 | 92 | 1010.7 |
| 20260505091013 | 50 | 58 | 2.6 | 7.0 | 0.00 | 0.24 | 0.05 | 93 | 1010.7 |
| 20260505070904 | 50 | 55 | 0.9 | 7.8 | 0.00 | 0.24 | 0.05 | 94 | 1010.8 |
| 20260505060845 | 50 | 60 | 1.7 | 7.8 | 0.00 | 0.24 | 0.05 | 94 | 1011.0 |
| 20260505053852 | 50 | 67 | 0.9 | 7.0 | 0.00 | 0.24 | 0.05 | 94 | 1010.7 |
| 20260505030845 | 52 | 356 | 2.6 | 7.0 | 0.02 | 0.23 | 0.04 | 93 | 1010.9 |
| 20260505020844 | 53 | 69 | 1.7 | 7.0 | 0.01 | 0.20 | 0.02 | 92 | 1010.7 |
| 20260505010844 | 54 | 34 | 0.9 | 7.8 | 0.00 | 0.20 | 0.01 | 92 | 1011.1 |
| 20260505000847 | 55 | 132 | 0.9 | 8.7 | 0.00 | 0.20 | 0.01 | 91 | 1011.2 |
| 20260504230845 | 57 | 111 | 0.9 | 4.3 | 0.01 | 0.19 | 0.00 | 92 | 1011.8 |
| 20260504230838 | 56 | 48 | 0.9 | 6.1 | 0.01 | 0.20 | 0.01 | 92 | 1011.6 |